This demonstration page uses our WeatherBlox Daily Observations layout. Learn more.

Left ArrowRight Arrow

34.02893, -84.19858

Hourly Observations for March 7, 2016

Temp ( °F °C ) Dew Point ( °F °C ) Humidity (%) Winds ( mph kmh ) Pressure ( in mb ) Visibility ( mi km ) Precip ( " mm )
12:53 am 00:53 Clear 50 10 34 1.1 54 54 ESE 3 6 30.25 1024 10 16 0.00 0.00
1:53 am 01:53 Clear 49 9.4 34 1.1 56 56 SE 5 7 30.25 1024 10 16 0.00 0.00
2:53 am 02:53 Clear 48 8.9 35 1.7 61 61 SSE 3 6 30.25 1024 10 16 0.00 0.00
3:53 am 03:53 Clear 43 6.1 35 1.7 74 74 Calm 30.25 1024 10 16 0.00 0.00
4:53 am 04:53 Clear 39 3.9 34 1.1 82 82 Calm 30.27 1025 10 16 0.00 0.00
5:53 am 05:53 Clear 41 5 35 1.7 79 79 Calm 30.28 1026 10 16 0.00 0.00
6:53 am 06:53 Clear 40 4.4 35 1.7 83 83 Calm 30.30 1026 10 16 0.00 0.00
7:53 am 07:53 Sunny 46 7.8 39 3.9 77 77 Calm 30.33 1027 10 16 0.00 0.00
8:53 am 08:53 Sunny 52 11.1 42 5.6 69 69 VRB 7 11 30.34 1028 10 16 0.00 0.00
9:53 am 09:53 Sunny 57 13.9 44 6.7 62 62 VRB 7 11 30.36 1028 10 16 0.00 0.00
10:53 am 10:53 Sunny 59 15 43 6.1 56 56 S 9 15 30.35 1028 10 16 0.00 0.00
11:53 am 11:53 Sunny 62 16.7 42 5.6 48 48 SE 9 15 30.34 1027 10 16 0.00 0.00
12:53 pm 12:53 Sunny 63 17.2 42 5.6 47 47 S 8 13 30.30 1026 10 16 0.00 0.00
1:53 pm 13:53 Sunny 64 17.8 41 5 43 43 SE 5 7 30.27 1025 10 16 0.00 0.00
2:53 pm 14:53 Sunny 67 19.4 40 4.4 37 37 ESE 5 7 30.23 1024 10 16 0.00 0.00
3:53 pm 15:53 Sunny 69 20.6 41 5 36 36 VRB 5 7 30.22 1023 10 16 0.00 0.00
4:53 pm 16:53 Sunny 68 20 40 4.4 36 36 SE 9 15 30.21 1023 10 16 0.00 0.00
5:53 pm 17:53 Sunny 67 19.4 39 3.9 36 36 SSE 8 13 30.22 1023 10 16 0.00 0.00
6:53 pm 18:53 Clear 63 17.2 39 3.9 41 41 SE 5 7 30.23 1024 10 16 0.00 0.00
7:53 pm 19:53 Clear 58 14.4 40 4.4 51 51 Calm 30.25 1024 10 16 0.00 0.00
8:53 pm 20:53 Clear 58 14.4 40 4.4 51 51 SE 5 7 30.24 1024 10 16 0.00 0.00
9:53 pm 21:53 Clear 57 13.9 41 5 55 55 SE 3 6 30.24 1024 10 16 0.00 0.00
10:53 pm 22:53 Clear 50 10 42 5.6 74 74 Calm 30.26 1025 10 16 0.00 0.00
11:53 pm 23:53 Clear 47 8.3 42 5.6 83 83 Calm 30.25 1025 10 16 0.00 0.00

Powered by AerisWeather